カタログに戻る

STARLINK-36902

運用中通信VLEO
NORAD 68043·PAYLOAD·🇺🇸 United States

打ち上げ Mar 2, 2026 から Vandenberg Space Force Base

Loading…

次のパス (今後24時間)

TLE

最新Source: CelesTrak SupGP

元期: Sep 15, 2026, 03:07 UTC

1 68043C 26041D   26258.13034722 -.00039546  00000+0 -11682-2 0  2585
2 68043  53.1581 246.7928 0001504  77.6332  38.4384 15.34414838    14

AllMySatでSTARLINK-36902をリアルタイム追跡

Download on the App Store